Overview Statistics Trail Chart Weather Telemetry Raw packets
 

This is the latest recevied weather packets stored in our database for station/object KN1OBI-13. If no packets are shown the sender has not sent any weather packets the latest 10 day(s).

<< 43 44 45 46 47 48 49 >>
Time Temp. Humidity Pressure Rain* Wind** Luminosity Snow
1787957790 25° C 72% 995.1 hPa 0 mm - - -
1787957190 25.56° C 71% 995 hPa 0 mm - - -
1787956590 25.56° C 68% 994.9 hPa 0 mm - - -
1787955990 26.67° C 65% 994.9 hPa 0 mm - - -
1787955390 27.78° C 63% 995.1 hPa 0 mm - - -
1787954790 28.89° C 62% 995.1 hPa 0 mm - - -
1787954190 30° C 60% 995 hPa 0 mm - - -
1787953590 30.56° C 60% 995 hPa 0 mm - - -
1787952990 30° C 61% 995 hPa 0 mm - - -
1787952390 30° C 61% 995 hPa 0 mm - - -
1787951790 28.89° C 64% 994.8 hPa 0 mm - - -
1787951190 28.89° C 63% 994.9 hPa 0 mm - - -
1787950591 27.78° C 65% 994.8 hPa 0 mm - - -
1787949990 28.33° C 63% 994.6 hPa 0 mm - - -
1787949390 28.89° C 65% 994.7 hPa 0 mm - - -
1787948790 28.33° C 69% 994.8 hPa 0 mm - - -
1787948190 27.78° C 67% 994.9 hPa 0 mm - - -
1787947590 29.44° C 61% 994.9 hPa 0 mm - - -
1787946990 28.89° C 65% 994.7 hPa 0 mm - - -
1787946390 27.78° C 67% 994.8 hPa 0 mm - - -
1787945790 27.78° C 69% 994.9 hPa 0 mm - - -
1787945190 28.89° C 66% 995 hPa 0 mm - - -
1787944590 28.89° C 67% 994.8 hPa 0 mm - - -
1787943990 28.33° C 67% 994.9 hPa 0 mm - - -
1787943390 28.33° C 65% 995 hPa 0 mm - - -

* Rain latest hour (hover to see other rain measurements)
** Current wind speed in m/s (hover to see current wind gust speed)